[TLELIST] Archives

 

[list_settings.list_name] Current TLEs

January 1st 2010 PST

HST 1 20580U 90037B 09365.14879106 .00000353 00000-0 14235-4 0 4965 2 20580 028.4713 256.7658 0003382 213.8468 146.1910 15.00873205879477 ISS (ZARYA) 1 25544U 98067A 09365.40988071 .00009379 00000-0 60205-4 0 2785 2 25544 051.6462 012.8898 0007919 129.8493 016.6224 15.77070060637037 CXO 1 25867U 99040B 09364.79166667 -.00000076 00000-0 10000-3 0 4117 2 25867 066.3242 061.4936 7881830 275.2308 354.4783 00.37795045 5755 ____________________________________________________________________ These 2-Line ...Continue Reading

[list_settings.list_name] Current TLEs

December 31st 2009 PST

HST 1 20580U 90037B 09364.15133672 .00000396 00000-0 17536-4 0 4959 2 20580 028.4712 263.2799 0003447 203.3777 156.6701 15.00873172879325 ISS (ZARYA) 1 25544U 98067A 09364.45936236 .00010460 00000-0 66715-4 0 2746 2 25544 051.6454 017.7915 0007941 127.4369 018.9088 15.77054959636887 CXO 1 25867U 99040B 09364.79166667 -.00000076 00000-0 10000-3 0 4117 2 25867 066.3242 061.4936 7881830 275.2308 354.4783 00.37795045 5755 ____________________________________________________________________ These 2-Line ...Continue Reading

[list_settings.list_name] Current TLEs

December 30th 2009 PST

HST 1 20580U 90037B 09362.15642654 .00000438 00000-0 20736-4 0 4944 2 20580 028.4715 276.3076 0003494 182.0986 177.9610 15.00872522879028 ISS (ZARYA) 1 25544U 98067A 09363.37936942 .00011438 00000-0 72631-4 0 2672 2 25544 051.6452 023.3603 0007818 124.1039 006.6048 15.77034694636719 CXO 1 25867U 99040B 09362.16666667 .00000037 00000-0 10000-3 0 4106 2 25867 066.3137 061.6045 7878883 275.2703 357.0245 00.37801464 5748 ____________________________________________________________________ These 2-Line ...Continue Reading

[list_settings.list_name] Current TLEs

December 29th 2009 PST

HST 1 20580U 90037B 09359.03106399 .00000424 00000-0 19702-4 0 4933 2 20580 028.4715 296.7007 0003494 148.8817 211.2004 15.00870797878559 ISS (ZARYA) 1 25544U 98067A 09362.37456019 .00012167 00000-0 77071-4 0 2609 2 25544 051.6445 028.5433 0007921 120.7783 061.4974 15.77013121636553 CXO 1 25867U 99040B 09362.16666667 .00000037 00000-0 10000-3 0 4106 2 25867 066.3137 061.6045 7878883 275.2703 357.0245 00.37801464 5748 ____________________________________________________________________ These 2-Line ...Continue Reading

[list_settings.list_name] Current TLEs

December 28th 2009 PST

HST 1 20580U 90037B 09359.03106399 .00000424 00000-0 19702-4 0 4933 2 20580 028.4715 296.7007 0003494 148.8817 211.2004 15.00870797878559 ISS (ZARYA) 1 25544U 98067A 09361.34050903 .00013181 00000-0 83228-4 0 2548 2 25544 051.6439 033.8757 0007980 118.0578 309.7463 15.76990488636393 CXO 1 25867U 99040B 09362.16666667 .00000037 00000-0 10000-3 0 4106 2 25867 066.3137 061.6045 7878883 275.2703 357.0245 00.37801464 5748 ____________________________________________________________________ These 2-Line ...Continue Reading

[list_settings.list_name] Current TLEs

December 27th 2009 PST

HST 1 20580U 90037B 09359.03106399 .00000424 00000-0 19702-4 0 4933 2 20580 028.4715 296.7007 0003494 148.8817 211.2004 15.00870797878559 ISS (ZARYA) 1 25544U 98067A 09360.41054398 .00014385 00000-0 90530-4 0 2481 2 25544 051.6441 038.6723 0008021 115.4114 069.3127 15.76969295636248 CXO 1 25867U 99040B 09359.54166667 .00000142 00000-0 10000-3 0 4094 2 25867 066.2962 061.7577 7877884 275.2565 359.6776 00.37808944 5736 ____________________________________________________________________ These 2-Line ...Continue Reading

[list_settings.list_name] Current TLEs

December 26th 2009 PST

HST 1 20580U 90037B 09359.03106399 .00000424 00000-0 19702-4 0 4933 2 20580 028.4715 296.7007 0003494 148.8817 211.2004 15.00870797878559 ISS (ZARYA) 1 25544U 98067A 09359.39653935 .00015112 00000-0 95007-4 0 2414 2 25544 051.6440 043.9009 0007993 113.2885 071.0148 15.76941822636082 CXO 1 25867U 99040B 09359.54166667 .00000142 00000-0 10000-3 0 4094 2 25867 066.2962 061.7577 7877884 275.2565 359.6776 00.37808944 5736 ____________________________________________________________________ These 2-Line ...Continue Reading

[list_settings.list_name] Current TLEs

December 25th 2009 PST

HST 1 20580U 90037B 09357.30213847 .00000407 00000-0 18376-4 0 4924 2 20580 028.4717 307.9826 0003481 131.1307 228.9628 15.00869724878296 ISS (ZARYA) 1 25544U 98067A 09358.36948194 .00014819 00000-0 93384-4 0 2345 2 25544 051.6441 049.1980 0007961 109.5929 000.2334 15.76908631635925 CXO 1 25867U 99040B 09356.87500000 .00000138 00000-0 10000-3 0 4084 2 25867 066.2825 061.8845 7874229 275.2338 356.7155 00.37806980 5727 ____________________________________________________________________ These 2-Line ...Continue Reading

[list_settings.list_name] Current TLEs

December 24th 2009 PST

HST 1 20580U 90037B 09354.37626171 .00000406 00000-0 18295-4 0 4914 2 20580 028.4720 327.0879 0003273 105.5218 254.5846 15.00868287877857 ISS (ZARYA) 1 25544U 98067A 09357.41896068 .00014267 00000-0 90181-4 0 2295 2 25544 051.6442 054.0996 0008068 106.3741 003.8607 15.76876725635777 CXO 1 25867U 99040B 09356.87500000 .00000138 00000-0 10000-3 0 4084 2 25867 066.2825 061.8845 7874229 275.2338 356.7155 00.37806980 5727 ____________________________________________________________________ These 2-Line ...Continue Reading

[list_settings.list_name] Current TLEs

December 23rd 2009 PST

HST 1 20580U 90037B 09354.37626171 .00000406 00000-0 18295-4 0 4914 2 20580 028.4720 327.0879 0003273 105.5218 254.5846 15.00868287877857 ISS (ZARYA) 1 25544U 98067A 09356.40362567 .00014571 00000-0 92134-4 0 2226 2 25544 051.6446 059.3357 0008001 102.9852 359.6015 15.76847351635613 CXO 1 25867U 99040B 09356.87500000 .00000138 00000-0 10000-3 0 4084 2 25867 066.2825 061.8845 7874229 275.2338 356.7155 00.37806980 5727 ____________________________________________________________________ These 2-Line ...Continue Reading
  • This mailing list is a public mailing list - anyone may join or leave, at any time.
  • This mailing list is announce-only.

International Space Station (ISS) / Hubble Space Telescope (HST) / Chandra X-Ray Observatory Orbital Data via EMAIL

Privacy Policy:

Private list